Jordan Valley, OR

10:09 AM MST on February 23, 2017 (GMT -0700)
Rome State

Weather History for KREO - June, 2013

Change the Weather History Date:

Wednesday, June 26, 2013

  Actual Average Record
Temperature  
Mean Temperature 71 °F 67 °F  
Max Temperature 88 °F 86 °F 103 °F (2015)
Min Temperature 53 °F 48 °F 34 °F (1976)
Degree Days  
Heating Degree Days 0 2  
Month to date heating degree days 94 119  
Since 1 June heating degree days 94 119  
Since 1 July heating degree days 6321 6575  
Cooling Degree Days 6 4  
Month to date cooling degree days 77 46  
Year to date cooling degree days 99 56  
Since 1 June cooling degree days 77 46  
Growing Degree Days 20 (Base 50)    
Moisture  
Dew Point 48 °F    
Average Humidity 55    
Maximum Humidity 89    
Minimum Humidity 21    
Precipitation  
Precipitation 0.00 in 0.02 in 0.61 in (1971)
Month to date precipitation 0.49 0.75  
Year to date precipitation 2.61 5.55  
Sea Level Pressure  
Sea Level Pressure 29.96 in    
Wind  
Wind Speed 10 mph (SSW)    
Max Wind Speed 26 mph    
Max Gust Speed 33 mph    
T = Trace of Precipitation, MM = Missing Value Source: NWS Daily Summary

Daily Weather History Graph

Daily Weather History Graph

Search for Another Location

Airport or City:

Trip Planner

Search our weather history database for the weather conditions in past years. The results will help you decide how hot, cold, wet, or windy it might be!

Date:

Astronomy

Jun. 26, 2013 Rise Set
Actual Time 5:15 AM PDT 8:33 PM PDT
Civil Twilight 4:40 AM PDT 9:08 PM PDT
Nautical Twilight 3:55 AM PDT 9:53 PM PDT
Astronomical Twilight 3:00 AM PDT 10:48 PM PDT
Moon 10:53 PM PDT (6/26) 9:18 AM PDT (6/26)
Length of Visible Light 16h 27m
Length of Day
15h 17m
Waning Gibbous, 84% of the Moon is Illuminated
Jun 26
Waning Gibbous
Jun 29
Last Quarter
Jul 8
New
Jul 15
First Quarter
Jul 22
Full

Hourly Weather History & Observations

Time (PDT) Temp. Dew Point Humidity Pressure Visibility Wind Dir Wind Speed Gust Speed Precip Events Conditions
12:52 AM 57.0 °F 53.1 °F 87% 29.93 in - SSE 5.8 mph - N/A   Unknown
1:52 AM 55.9 °F 52.0 °F 87% 29.94 in - West 5.8 mph - N/A   Unknown
2:52 AM 59.0 °F 51.1 °F 75% 29.92 in - SW 13.8 mph - N/A   Unknown
3:52 AM 57.9 °F 51.1 °F 78% 29.95 in - South 6.9 mph - N/A   Unknown
4:52 AM 55.0 °F 51.1 °F 86% 29.98 in - NE 3.5 mph - N/A   Unknown
5:52 AM 54.0 °F 50.0 °F 86% 30.00 in - ENE 4.6 mph - N/A   Unknown
6:52 AM 62.1 °F 51.1 °F 67% 29.99 in - Calm Calm - N/A   Unknown
7:52 AM 66.0 °F 48.9 °F 54% 29.99 in - Calm Calm - N/A   Unknown
8:52 AM 68.0 °F 50.0 °F 52% 30.00 in - Calm Calm - N/A   Unknown
9:52 AM 72.0 °F 48.0 °F 43% 29.99 in - SSW 15.0 mph 21.9 mph N/A   Unknown
10:52 AM 75.0 °F 46.9 °F 37% 29.98 in - SSW 21.9 mph 32.2 mph N/A   Unknown
11:52 AM 78.1 °F 46.0 °F 32% 29.97 in - SSW 20.7 mph 26.5 mph N/A   Unknown
12:52 PM 79.0 °F 45.0 °F 30% 29.96 in - SSW 15.0 mph 28.8 mph N/A   Unknown
1:52 PM 78.1 °F 45.0 °F 31% 29.97 in - South 15.0 mph 19.6 mph N/A   Unknown
2:52 PM 82.9 °F 46.0 °F 27% 29.93 in - South 15.0 mph 21.9 mph N/A   Unknown
3:52 PM 87.1 °F 45.0 °F 23% 29.90 in - SW 18.4 mph 27.6 mph N/A   Unknown
4:52 PM 86.0 °F 44.1 °F 23% 29.91 in - SW 13.8 mph 28.8 mph N/A   Unknown
5:52 PM 87.1 °F 43.0 °F 21% 29.90 in - SW 9.2 mph 18.4 mph N/A   Unknown
6:52 PM 84.9 °F 42.1 °F 22% 29.91 in - West 13.8 mph - N/A   Unknown
7:52 PM 82.0 °F 42.1 °F 24% 29.93 in - WSW 13.8 mph - N/A   Unknown
8:52 PM 75.9 °F 45.0 °F 33% 29.97 in - West 4.6 mph - N/A   Unknown
9:52 PM 70.0 °F 46.9 °F 44% 30.01 in - North 5.8 mph - N/A   Unknown
10:52 PM 64.9 °F 48.9 °F 56% 30.04 in - East 5.8 mph - N/A   Unknown
11:52 PM 63.0 °F 50.0 °F 63% 30.04 in - ENE 5.8 mph - N/A   Unknown